Regional Weather Roundup
Issued by NWS Sioux Falls, SD

Home | Current Version | Previous Version | Text Only | Print | Product List | Glossary Off
Versions: 1 2 3 4 5 6 7 8 9 10 11 12 13 14 15 16 17 18 19 20 21 22 23 24 25 26 27 28 29 30 31 32 33 34 35 36 37 38 39 40 41 42 43 44 45 46 47 48 49 50

419
ASUS43 KFSD 030902
RWRFSD

WEATHER ROUNDUP FOR SE SOUTH DAKOTA/SW MINNESOTA/NW IOWA
NATIONAL WEATHER SERVICE SIOUX FALLS SD
300 AM CST SAT DEC 03 2016

NOTE: "FAIR" INDICATES FEW OR NO CLOUDS BELOW 12,000 FEET WITH NO
SIGNIFICANT WEATHER AND OR OBSTRUCTIONS TO VISIBILITY.


SDZ038>040-050-052>070-031000-
SOUTHEAST SOUTH DAKOTA

CITY           SKY/WX    TMP DP  RH WIND       PRES   REMARKS
CHAMBERLAIN    CLEAR     24  23  98 SE5       30.21F WCI  18
HURON          NOT AVBL
MITCHELL       PTCLDY    26  25  96 S8        30.28S WCI  18
SIOUX FALLS    CLOUDY    29  26  89 S3        30.30R
WINNER         FAIR      26  22  84 S7        30.19F WCI  18
$$

MNZ071-072-080-081-089-090-097-098-031000-
SOUTHWEST MINNESOTA

CITY           SKY/WX    TMP DP  RH WIND       PRES   REMARKS
FAIRMONT       CLOUDY    29  20  69 NW9       30.32  WCI  20
JACKSON        CLOUDY    27  19  74 W7        30.31R WCI  19
LUVERNE        CLOUDY    27  25  93 S5        30.32R WCI  21
MARSHALL       CLOUDY    26  19  74 W9        30.30  WCI  17
MONTEVIDEO     CLOUDY    27  27 100 NW3       30.31F
PIPESTONE      CLEAR     25  19  80 CALM      30.27S
REDWOOD FALLS  CLOUDY    29  20  69 NW5       30.30S WCI  24
TRACY          CLOUDY    27  21  80 SW3       30.30R
WORTHINGTON    CLOUDY    25  21  85 SW3       30.30
$$

IAZ001>003-012>014-020>022-031-032-NEZ013-014-SDZ071-031000-
NORTHWEST IOWA

CITY           SKY/WX    TMP DP  RH WIND       PRES   REMARKS
CHEROKEE       CLOUDY    32  30  93 SW5       30.33S WCI  27
DENISON        CLOUDY    32  28  86 CALM      30.33R
LE MARS        CLOUDY    30  30 100 S6        30.34S WCI  24
ORANGE CITY    CLOUDY    30  30 100 CALM      30.32R
SHELDON        CLOUDY    30  27  86 W5        30.31R WCI  25
SIOUX CITY     CLOUDY    27  24  89 CALM      30.35S
SPENCER        CLOUDY    31  27  85 W5        30.32R WCI  26
STORM LAKE     CLOUDY    32  28  86 S7        30.33R WCI  26
$$

ABBREVIATIONS USED IN REMARKS
   TC - TEMPERATURE IN CELSIUS
  WCI - WIND CHILL INDEX
   HX - HEAT INDEX
  VSB - VISIBILITY





USA.gov is the U.S. government's official web portal to all federal, state and local government web resources and services.